{"data":{"norad_id":61628,"intl_designator":"2024-191H","name":"STARLINK-32421","alt_names":[],"object_type":"PAYLOAD","status":"ACTIVE","operator":null,"country":"US","launch_date":"2024-10-23","launch_site_code":"AFETR","launch_vehicle":null,"mission":null,"orbit_class":"UNKNOWN","rcs_meters":null,"size_class":null,"mass_kg":null,"dimensions":null,"purposes":["comms"],"wikipedia_slug":null,"has_3d_model":false,"image_url":null,"decayed_at":null,"tle_current":{"epoch":"2026-09-21T07:35:35.551680Z","epoch_age_seconds":121490,"freshness":"FRESH","line1":"1 61628U 24191H   26264.31638370 -.00001321  00000+0 -38482-4 0  9998","line2":"2 61628  43.0015 129.8192 0001312 262.4793  97.5910 15.27584012107453","mean_motion":15.27584012,"eccentricity":0.0001312,"inclination_deg":43.0015,"raan_deg":129.8192,"arg_perigee_deg":262.4793,"mean_anomaly_deg":97.591,"bstar":-3.8482e-5,"rev_number":10745,"period_min":94.266501134342,"perigee_km":482.13689665499,"apogee_km":483.93726873429,"semimajor_km":6861.1740826946,"source":"CELESTRAK","updated_at":"2026-09-22T09:00:49.396019Z"}}}